Location: Stoke Bliss
(52.2667°N, 2.5167°W)
Time: 01:58:06
(UTC+00:00)

Okean 1-7 - Pass Details

Date: 03 March 2021
Orbit: 590 x 619 km, 82.5° (Epoch: 11 April)

Event Time Altitude Azimuth Distance (km) Brightness Sun altitude
Rises 19:33:04 0° 348° (NNW) 2,902 6.8 -16.0°
Reaches altitude 10° 19:35:18 10° 348° (NNW) 1,989 5.9 -16.3°
Maximum altitude 19:39:43 84° 262° (W) 623 3.0 -17.0°
Drops below altitude 10° 19:44:03 10° 174° (S) 1,955 5.4 -17.6°
Enters shadow 19:45:49 - 173° (S) 2,678 6.1 -17.9°
